Regional Weather Roundup
Issued by NWS

Home | Current Version | Previous Version | Text Only | Print | Product List | Glossary On
Versions: 1 2 3 4 5 6 7 8 9 10 11 12 13 14 15 16 17 18 19 20 21 22 23 24 25 26 27
000
ASCA42 TJSJ 252110
RWRPR
PUERTO RICO/U.S. VIRGIN ISLANDS HOURLY WEATHER ROUNDUP
NATIONAL WEATHER SERVICE SAN JUAN PR
500 PM AST SAT MAR 25 2017

PRZ001>002-007>008-010-252200-
PUERTO RICO

CITY           SKY/WX    TMP DP  RH WIND       PRES   REMARKS
SAN JUAN LMM   PTSUNNY   81  72  74 S8        29.88R
AGUADILLA      MOSUNNY   81  70  69 SW12G17   29.88S
CEIBA          PTSUNNY   82  73  74 S12       29.92S
$$

VIZ001>002-252200-
U.S. VIRGIN ISLANDS

CITY           SKY/WX    TMP DP  RH WIND       PRES   REMARKS
CHARLOTTE AMA  CLOUDY    77  73  88 SE15      29.92R
CHRISTIANSTED  PTSUNNY   79  72  78 SE9       29.92S
$$

HOURLY WEATHER ROUNDUP FOR THE NEWS MEDIA

CITY           SKY/WX    TMP DP  RH WIND       PRES   REMARKS
ORLANDO        MOSUNNY   79  54  41 SE13      30.14F
NEW YORK       CLOUDY    50  45  83 E7        30.26R
NEWARK         CLOUDY    53  42  66 NE15      30.25R
CHICAGO        LGT RAIN  44  41  89 N12       29.99F FOG
HARTFORD       CLOUDY    40  36  86 CALM      30.26F
BOSTON         CLOUDY    37  34  89 N7        30.30  WCI  32
DALLAS         MOSUNNY   71  45  39 NW10G16   29.94F
PHILADELPHIA   LGT RAIN  68  55  63 NE6       30.17R
LOS ANGELES    PTSUNNY   64  55  72 W16       30.07F
WASHINGTON DC  CLOUDY    77  49  37 CALM      30.13F



USA.gov is the U.S. government's official web portal to all federal, state and local government web resources and services.